TimeCST,TemperatureF,Dew PointF,Humidity,Sea Level PressureIn,VisibilityMPH,Wind Direction,Wind SpeedMPH,Gust SpeedMPH,PrecipitationIn,Events,Conditions,WindDirDegrees,DateUTC
12:51 AM,55.0,46.0,72,30.11,10.0,SSE,5.8,-,N/A,,Clear,150,2012-11-22 06:51:00
1:51 AM,55.0,45.0,69,30.10,10.0,South,3.5,-,N/A,,Clear,180,2012-11-22 07:51:00
2:51 AM,53.1,46.0,77,30.10,10.0,South,6.9,-,N/A,,Clear,170,2012-11-22 08:51:00
3:51 AM,53.1,46.9,80,30.10,10.0,South,5.8,-,N/A,,Clear,190,2012-11-22 09:51:00
4:51 AM,51.1,46.0,83,30.12,10.0,South,4.6,-,N/A,,Clear,180,2012-11-22 10:51:00
5:51 AM,48.0,44.1,86,30.12,10.0,South,5.8,-,N/A,,Clear,190,2012-11-22 11:51:00
6:51 AM,51.8,46.4,82,30.13,10.0,South,6.9,-,N/A,,Clear,170,2012-11-22 12:51:00
7:51 AM,55.0,51.1,86,30.13,9.0,SE,8.1,-,N/A,,Clear,140,2012-11-22 13:51:00
8:51 AM,63.0,55.0,75,30.15,10.0,SSW,9.2,-,N/A,,Clear,200,2012-11-22 14:51:00
9:51 AM,69.8,55.4,60,30.15,10.0,SSW,15.0,-,N/A,,Clear,200,2012-11-22 15:51:00
10:51 AM,73.0,54.0,51,30.13,10.0,SSW,16.1,21.9,N/A,,Clear,200,2012-11-22 16:51:00
11:51 AM,73.0,54.0,51,30.11,10.0,South,12.7,-,N/A,,Clear,190,2012-11-22 17:51:00
12:51 PM,73.0,50.0,44,30.08,10.0,South,17.3,23.0,N/A,,Partly Cloudy,180,2012-11-22 18:51:00
1:51 PM,75.0,53.1,46,30.06,10.0,South,16.1,-,N/A,,Partly Cloudy,190,2012-11-22 19:51:00
2:51 PM,75.9,53.1,45,30.04,10.0,South,17.3,23.0,N/A,,Clear,180,2012-11-22 20:51:00
3:51 PM,75.9,53.1,45,30.04,10.0,South,12.7,-,N/A,,Clear,180,2012-11-22 21:51:00
4:51 PM,73.9,53.1,48,30.04,10.0,SSW,11.5,-,N/A,,Partly Cloudy,200,2012-11-22 22:51:00
5:51 PM,68.0,54.0,61,30.04,10.0,SSE,6.9,-,N/A,,Partly Cloudy,160,2012-11-22 23:51:00
6:51 PM,66.0,54.0,65,30.06,10.0,South,6.9,-,N/A,,Clear,170,2012-11-23 00:51:00
7:51 PM,64.9,54.0,68,30.07,10.0,South,4.6,-,N/A,,Clear,170,2012-11-23 01:51:00
8:51 PM,64.0,54.0,70,30.08,10.0,South,8.1,-,N/A,,Clear,170,2012-11-23 02:51:00
9:51 PM,66.0,54.0,65,30.09,10.0,South,9.2,-,N/A,,Clear,170,2012-11-23 03:51:00
10:51 PM,64.0,54.0,70,30.10,10.0,South,9.2,-,N/A,,Clear,180,2012-11-23 04:51:00
11:51 PM,64.0,54.0,70,30.10,10.0,South,11.5,-,N/A,,Clear,180,2012-11-23 05:51:00